www.pogodaiklimat.ru

Погода и климат >> Архив погоды >> Россия >> Краснодарский край >> Геленджик


АРХИВ ПОГОДЫ в Геленджике

Время (UTC), дата Ветер
(напр.,м/с)
 
Видим.   Явления Облачность Т
(С)
Тd
(С)
f
(%)
Тe
(С)
Тes
(С)
Комфортность P
(гПа)
Po
(гПа)
Тmin
(С)
Tmax
(С)
R
(мм)
R24
(мм)
S
(см)
00 12.11 ЮЗ 4 10 км 10/10 600 м
[Sc]
+13.7 +9.3 75 +12 +12 тепло 1019.0 1017.1
03 12.11 ЮЗ 2 10 км 3/3 600 м
[Sc]
+13.5 +9.5 77 +13 +13 тепло 1019.1 1017.3 +13.4
06 12.11 СВ 1 20 км 5/4 600 м
[Cu Sc Cc]
+13.9 +9.5 75 +14 +15 тепло 1019.4 1017.6 +13.3
09 12.11 ЮВ 3 20 км 10/10 600 м
[Cu Sc]
+15.3 +10.7 74 +15 +15 тепло 1018.3 1016.5
12 12.11 ЮВ 3 10 км слабый ливневой дождь 10/10 600 м
[Cb cap]
+14.8 +11.9 83 +14 +14 тепло 1016.3 1014.5
15 12.11 ЮВ 4
{10}
10 км слабый ливневой дождь 10/10 300 м
[Cb cap]
+15.0 +12.5 85 +14 +14 тепло 1015.4 1013.6 +15.5 3
18 12.11 ЮВ 2
{10}
10 км слабый ливневой дождь 10/10 600 м
[Cb cap]
+15.2 +13.5 90 +15 +15 тепло 1015.2 1013.4
21 12.11 ЮВ 2 10 км {ливн. осадки} 10/10 300 м
[Cb cap]
+15.2 +11.3 78 +15 +15 тепло 1016.1 1014.3
00 13.11 С 1 10 км {ливн. осадки} 10/10 600 м
[Cb cap]
+15.1 +11.3 78 +16 +16 тепло 1016.9 1015.1
03 13.11 ЮВ 4
{12}
10 км 6/3 300 м
[Sc diur, vesp Ac trans]
+15.5 +11.9 79 +15 +15 тепло 1017.0 1015.2 +14.3 1
06 13.11 ЮВ 4
{11}
20 км 10/4 600 м
[Sc Ac trans Cc]
+15.8 +12.4 80 +15 +15 тепло 1018.5 1016.7
09 13.11 ЮВ 2 20 км 8/4 600 м
[Sc Ac trans Ci fib]
+17.2 +13.2 77 +18 +19 тепло 1018.6 1016.8
12 13.11 ЮВ 2 20 км 6/3 600 м
[Sc Ac trans Ci fib]
+17.1 +12.5 74 +17 +19 тепло 1017.6 1015.8
15 13.11 В 2 10 км 4/0
[Ac trans Ci fib]
+16.5 +7.5 55 +17 +17 тепло 1017.2 1015.4 +17.3
18 13.11 В 2 10 км ясно +16.3 +6.3 52 +16 +16 тепло 1016.7 1014.9
21 13.11 СВ 2 10 км ясно +17.1 +4.7 44 +17 +17 тепло 1015.6 1013.9
00 14.11 СВ 2 10 км 4/0
[Ci fib]
+17.5 +3.7 40 +18 +18 тепло 1014.3 1012.5
03 14.11 СВ 3 10 км 10/0
[Ac As Ci fib]
+18.7 +2.9 35 +19 +19 тепло 1013.6 1011.8 +15.7
06 14.11 СВ 3 50 км 8/0
[Ac As Cc]
+19.6 +2.4 32 +20 +21 тепло 1013.9 1012.1
09 14.11 ЮВ 1 50 км 4/0
[Ac trans Cc]
+23.8 +2.4 25 +23 +27 комфорт 1013.1 1011.4
12 14.11 ЮВ 2 50 км 4/0
[Ac trans Cc]
+21.6 +3.6 31 +22 +23 комфорт 1012.7 1010.9
15 14.11 СВ 1 10 км 4/0
[Cc]
+17.8 +4.0 40 +19 +19 тепло 1013.9 1012.1 +24.3
18 14.11 СВ 1 10 км ясно +13.5 +4.3 54 +14 +14 тепло 1014.8 1013.0
21 14.11 В 2 10 км ясно +12.0 +7.9 76 +11 +11 тепло 1015.7 1013.9
00 15.11 С 2 10 км ясно +11.3 +7.2 76 +10 +10 тепло 1017.2 1015.4
03 15.11 С 1 10 км ясно +12.3 +8.5 78 +12 +12 тепло 1018.5 1016.6 +11.1
06 15.11 С 2 50 км 3/0
[Cc]
+13.1 +9.6 79 +12 +13 тепло 1020.2 1018.4 +11.1
09 15.11 З 2 50 км ясно +16.2 +11.5 74 +16 +20 тепло 1020.4 1018.6
12 15.11 З 2 50 км ясно +15.9 +11.4 75 +16 +18 тепло 1021.1 1019.3
15 15.11 С 2 10 км 4/4 600 м
[Sc]
+12.5 +9.1 80 +12 +12 тепло 1022.4 1020.6 +16.9
18 15.11 СВ 1 10 км 8/5 600 м
[Sc Ac trans Ci fib]
+11.4 +8.7 83 +11 +11 тепло 1023.7 1021.9
21 15.11 С 2 10 км 10/8 600 м
[Sc Ac trans]
+11.6 +8.1 79 +11 +11 тепло 1024.7 1022.8
00 16.11 С 2 10 км 10/10 600 м
[Sc]
+11.3 +7.0 75 +10 +10 тепло 1025.0 1023.1
03 16.11 штиль 0 10 км 10/6 1000 м
[Sc Ac trans Ci fib]
+11.0 +7.7 80 +10 +10 тепло 1025.3 1023.5 +10.6
06 16.11 С 1 50 км 10/8 600 м
[Sc Ac trans Cc]
+11.7 +8.4 80 +12 +12 тепло 1026.1 1024.2
09 16.11 СЗ 1 50 км 10/10 600 м
[Sc]
+14.6 +9.0 69 +15 +15 тепло 1025.9 1024.1
12 16.11 штиль 0 50 км 10/10 600 м
[Sc]
+15.4 +10.0 70 +15 +15 тепло 1025.0 1023.1
15 16.11 С 1 10 км 6/1 600 м
[Sc Ac trans]
+11.8 +8.5 80 +12 +12 тепло 1024.7 1022.9 +16.1
18 16.11 С 1 10 км 1/1 600 м
[Sc]
+10.6 +7.9 83 +10 +10 тепло 1024.7 1022.9
21 16.11 С 2 10 км 10/10 600 м
[Sc]
+10.0 +7.5 84 +8 +8 тепло 1024.6 1022.7
00 17.11 С 1 10 км 10/10 600 м
[Sc]
+11.1 +8.0 81 +11 +11 тепло 1024.1 1022.2
03 17.11 штиль 0 10 км 3/1 600 м
[Sc Ac trans]
+9.8 +7.0 83 +9 +9 тепло 1023.4 1021.6 +9.8
06 17.11 С 2 50 км 4/1 600 м
[Sc Cc]
+11.9 +5.8 66 +11 +12 тепло 1023.7 1021.9 +9.2
09 17.11 С 3 50 км 8/3 600 м
[Sc Ac trans Cc]
+14.8 +5.2 53 +14 +16 тепло 1022.5 1020.7
12 17.11 С 2 50 км 4/0
[Cc]
+15.2 +3.3 45 +15 +17 тепло 1021.1 1019.3
15 17.11 СВ 3 10 км 8/0
[Cc]
+11.5 +2.2 53 +10 +10 тепло 1020.1 1018.3 +15.3
18 17.11 штиль 0 10 км ясно +9.8 +4.1 68 +9 +9 тепло 1019.4 1017.6
21 17.11 штиль 0 10 км ясно +8.6 +3.9 72 +8 +8 тепло 1018.7 1016.9
00 18.11 СВ 1 10 км ясно +7.5 +4.5 81 +7 +7 тепло 1019.2 1017.3
03 18.11 штиль 0 10 км ясно +9.0 +5.8 80 +8 +8 тепло 1018.2 1016.3 +6.7
06 18.11 СВ 1 50 км 8/0
[Cc]
+10.3 +7.2 81 +10 +11 тепло 1018.8 1017.0
09 18.11 В 1 50 км 3/3 1000 м
[Cu med, cong]
+16.9 +9.9 63 +18 +21 тепло 1017.8 1016.0
12 18.11 ЮВ 1 50 км 4/3 1000 м
[Cu hum Ac trans Ci fib]
+16.8 +11.6 71 +18 +19 тепло 1016.4 1014.6
15 18.11 В 2 10 км ясно +14.6 +9.6 72 +14 +14 тепло 1016.0 1014.2 +17.5
18 18.11 В 1 10 км ясно +12.9 +9.3 79 +13 +13 тепло 1015.2 1013.4

 

Местоположение метеостанции Геленджик (Краснодарский край, Россия): широта 44.57 долгота 38.08 высота над уровнем моря 15 м.

В архиве по умолчанию представлена погода в Геленджике за последнюю неделю. Архивные данные за месяц целиком и за предыдущие месяцы, начиная с января 2011 года, Вы можете получить, выбрав интересующий диапазон дат из раскрывающегося списка и нажав кнопку "Ввод!".

Внимание! Время в таблицах - всемирное. Для получения местного времени необходимо прибавить поправку, которая в Геленджике равна 3 ч.

Смотрите также архив погоды в соседних городах и на ближайших метеорологических станциях:

Погода в Новороссийске (Краснодарский край, Россия) (25 км)
Погода в Крымске (Краснодарский край, Россия) (39 км)
Погода в Джубге (Краснодарский край, Россия) (57 км)
Погода в Анапе (Краснодарский край, Россия) (72 км)
Погода в Славянске-на-Кубани (Краснодарский край, Россия) (79 км)
Погода в Горячем Ключе (Краснодарский край, Россия) (81 км)
Погода в Краснодаре (Краснодарский край, Россия) (92 км)
Погода в Туапсе (Краснодарский край, Россия) (95 км)
Погода в Горном (Краснодарский край, Россия) (100 км)
Погода в Темрюке (Краснодарский край, Россия) (100 км)

Пояснения к столбцам:

Ветер - указаны скорость ветра в м/с - средняя за 10 мин, порывы в срок и между сроками (в фигурных скобках) и направление, откуда дует ветер: С - северный, СВ - северо-восточный, В - восточный, ЮВ - юго-восточный, Ю - южный, ЮЗ - юго-западный, З - западный, СЗ - северо-западный.
Видимость - горизонтальная дальность видимости в метрах или километрах. При видимости от 1 до 10 км при отсутствии осадков обычно наблюдается дымка, при ухудшении видимости до 1 км и менее - туман. В сухую погоду видимость может ухудшаться дымом, пылью или мглою.
Явления - указаны атмосферные явления, наблюдавшиеся в срок или в последний час перед сроком; фигурными скобками обозначены явления, наблюдавшиеся между сроками (за 1-3 часа до срока); квадратными скобками обозначены град или гололедные отложения с указанием их диаметра в мм.
Облачность - указаны через наклонную черту общая и нижняя облачность в баллах и высота нижней границы облаков в метрах; квадратными скобками обозначены формы облаков: Ci - перистые, Cs - перисто-слоистые, Cc - перисто-кучевые, Ac - высококучевые, As - высокослоистые, Sc - слоисто-кучевые, Ns - слоисто-дождевые, Cu - кучевые, Cb - кучево-дождевые. Подробнее классификацию облаков см. в Атласе облаков (PDF).
T - Температура воздуха - температура, измеренная на высоте 2 м над землей.
Td - Температура точки росы - температура, при понижении до которой содержащийся в воздухе водяной пар достигнет насыщения.
f - Относительная влажность воздуха - влажноcть воздуха, измеренная на высоте 2 м над землей.
Te - Эффективная температура - температура, которую ощущает одетый по сезону человек в тени. Характеристика душности погоды. При расчете учитывается влияние влажности воздуха и скорости ветра на теплоощущения человека.
Tes - Эффективная температура на солнце - температура, которую ощущает человек, с поправкой на солнечный нагрев. Характеристика знойности погоды. Зависит от высоты солнца над горизонтом, облачности и скорости ветра. Ночью, в пасмурную погоду, а также при ветре 12 м/с и более поправка равна нулю.
P - Атмосферное давление - приведенное к уровню моря атмосферное давление.
Po - Атмосферное давление - измеренное на уровне метеостанции атмосферное давление.
Tmin - Минимальная температура - минимум температуры воздуха на высоте 2 м над землей.
Tmax - Максимальная температура - максимум температуры воздуха на высоте 2 м над землей.
R - Количество осадков - Количество выпавших осадков за период времени, мм. При наведении курсора мыши на число - период времени, за который выпало указанное количество осадков.
R24 - Количество осадков - Количество выпавших осадков за 24 часа, мм.
S - Снежный покров - Высота снежного покрова, см. При наведении курсора мыши на число - состояние снежного покрова и степень покрытия местности в баллах.